This demonstration page uses our WeatherBlox Daily Observations layout. Learn more.

Hourly Observations for January 11, 2020

Temp ( °F °C ) Dew Point ( °F °C ) Humidity (%) Winds ( mph kmh ) Pressure ( in mb ) Visibility ( mi km ) Precip ( " mm )
12:54 am 00:54 Clear 11 -11.7 3 -16.1 70 70 N 18 30 30.26 1025 10 16.0934 0 0
1:54 am 01:54 Clear 9 -12.8 1 -17.2 70 70 N 17 28 30.23 1024 10 16.0934 0 0
2:54 am 02:54 Clear 9 -12.8 0 -17.8 66 66 N 14 22 30.3 1026 10 16.0934 0 0
3:54 am 03:54 Clear 8 -13.3 -1 -18.3 66 66 N 12 19 30.26 1025 10 16.0934 0 0
4:54 am 04:54 Clear 8 -13.3 -1 -18.3 66 66 N 16 26 30.22 1023 10 16.0934 0 0
5:54 am 05:54 Clear 7 -13.9 -2 -18.9 66 66 N 10 17 30.26 1025 10 16.0934 0 0
6:54 am 06:54 Clear 7 -13.9 -2 -18.9 66 66 NNW 10 17 30.27 1025 10 16.0934 0 0
7:54 am 07:54 Sunny 6 -14.4 -3 -19.4 66 66 N 15 24 30.26 1025 10 16.0934 0 0
8:54 am 08:54 Sunny 8 -13.3 -2 -18.9 63 63 N 10 17 30.25 1025 10 16.0934 0 0
9:54 am 09:54 Sunny 11 -11.7 -1 -18.3 58 58 NNE 12 19 30.26 1025 10 16.0934 0 0
10:54 am 10:54 Sunny 14 -10 1 -17.2 56 56 N 12 19 30.23 1024 10 16.0934 0 0
11:54 am 11:54 Sunny 18 -7.8 3 -16.1 52 52 NNW 8 13 30.21 1023 10 16.0934 0 0
12:54 pm 12:54 Sunny 22 -5.6 3 -16.1 44 44 NNW 8 13 30.19 1022 10 16.0934 0 0
1:54 pm 13:54 Sunny 25 -3.9 5 -15 42 42 NNW 8 13 30.15 1021 10 16.0934 0 0
2:54 pm 14:54 Sunny 27 -2.8 5 -15 39 39 N 7 11 30.12 1020 10 16.0934 0 0
3:54 pm 15:54 Sunny 26 -3.3 5 -15 40 40 NNE 8 13 30.12 1020 10 16.0934 0 0
4:54 pm 16:54 Sunny 22 -5.6 5 -15 48 48 NNE 6 9 30.13 1020 10 16.0934 0 0
5:54 pm 17:54 Clear 16 -8.9 4 -15.6 59 59 NE 7 11 30.14 1021 10 16.0934 0 0
6:54 pm 18:54 Clear 16 -8.9 4 -15.6 59 59 NE 5 7 30.14 1021 10 16.0934 0 0
7:54 pm 19:54 Clear 15 -9.4 4 -15.6 61 61 NE 3 6 30.16 1021 10 16.0934 0 0
8:54 pm 20:54 Clear 18 -7.8 6 -14.4 59 59 E 6 9 30.14 1021 10 16.0934 0 0
9:54 pm 21:54 Clear 17 -8.3 6 -14.4 62 62 Calm 30.17 1022 10 16.0934 0 0
10:54 pm 22:54 Clear 15 -9.4 6 -14.4 67 67 SSW 3 6 30.19 1022 10 16.0934 0 0
11:54 pm 23:54 Clear 13 -10.6 5 -15 70 70 S 3 6 30.19 1022 10 16.0934 0 0

Powered by AerisWeather